Location: Cahas Mountain Overlook
(37.0833°N, 80.1000°W)
Time: 03:33:24
(UTC-05:00)

A-11 Canister half - All Passes

Search period start: 05 December 2023 00:00
Search period end: 15 December 2023 00:00
Orbit: 1525 x 1684 km, 47.3° (Epoch: 04 December)

Date Brightness Start Highest point End Pass type
(mag) Time Alt. Az. Time Alt. Az. Time Alt. Az.
05 Dec - 01:39:41 10° WNW 01:49:38 79° SW 01:59:12 10° SE visible
05 Dec - 03:46:24 10° WNW 03:53:33 24° SW 04:00:32 10° S visible
05 Dec - 16:56:25 10° S 17:04:47 31° SE 17:13:10 10° ENE daylight
05 Dec - 18:58:55 10° SW 19:09:07 89° SSE 19:19:17 10° ENE visible
05 Dec - 21:05:22 10° W 21:15:11 50° NNW 21:24:51 10° ENE visible
05 Dec - 23:12:15 10° WNW 23:22:04 52° NNE 23:31:34 10° E visible
06 Dec - 01:17:53 10° WNW 01:27:53 82° SW 01:37:30 10° SE night (unlit)
06 Dec - 03:24:27 10° WNW 03:31:53 25° SW 03:39:09 10° S visible
06 Dec - 16:34:56 10° S 16:43:05 29° SE 16:51:16 10° ENE daylight
06 Dec - 18:37:09 10° SW 18:47:20 87° SSE 18:57:31 10° ENE visible
06 Dec - 20:43:30 10° W 20:53:20 51° NNW 21:03:03 10° ENE visible
06 Dec - 22:50:26 10° WNW 23:00:14 51° NNE 23:09:45 10° E visible
07 Dec - 00:56:06 10° WNW 01:06:09 86° SW 01:15:48 10° SE night (unlit)
07 Dec - 03:02:30 10° WNW 03:10:13 27° SW 03:17:46 10° S visible
07 Dec - 16:13:30 10° S 16:21:24 27° SE 16:29:21 10° ENE daylight
07 Dec - 18:15:25 10° SW 18:25:34 84° SE 18:35:45 10° ENE visible
07 Dec - 20:21:37 10° W 20:31:29 52° NNW 20:41:15 10° ENE visible
07 Dec - 22:28:35 10° WNW 22:38:23 50° NNE 22:47:55 10° E visible
08 Dec - 00:34:18 10° WNW 00:44:24 89° SSW 00:54:05 10° SE night (unlit)
08 Dec - 02:40:34 10° WNW 02:48:32 29° SW 02:56:19 10° S night (unlit)
08 Dec - 15:52:03 10° S 15:59:42 25° SE 16:07:23 10° ENE daylight
08 Dec - 17:53:41 10° SW 18:03:47 81° SE 18:13:58 10° ENE visible
08 Dec - 19:59:45 10° W 20:09:39 53° NNW 20:19:27 10° ENE visible
08 Dec - 22:06:46 10° WNW 22:16:33 50° N 22:26:05 10° E visible
09 Dec - 00:12:31 10° WNW 00:22:37 88° NNE 00:32:22 10° SE night (unlit)
09 Dec - 02:18:40 10° WNW 02:26:52 31° SW 02:34:52 10° S night (unlit)
09 Dec - 15:30:39 10° S 15:38:01 24° SE 15:45:26 10° ENE daylight
09 Dec - 17:31:56 10° SW 17:42:02 77° SE 17:52:11 10° ENE visible
09 Dec - 19:37:53 10° W 19:47:48 54° NNW 19:57:39 10° ENE visible
09 Dec - 21:44:55 10° WNW 21:54:42 49° N 22:04:15 10° E visible
09 Dec - 23:50:44 10° WNW 00:00:52 86° NNE 00:10:38 10° ESE night (unlit)
10 Dec - 01:56:45 10° WNW 02:05:11 33° SW 02:13:23 10° S night (unlit)
10 Dec - 15:09:17 10° S 15:16:20 22° SE 15:23:26 10° E daylight
10 Dec - 17:10:13 10° SW 17:20:16 74° SE 17:30:24 10° ENE visible
10 Dec - 19:16:02 10° W 19:25:58 55° NNW 19:35:52 10° ENE visible
10 Dec - 21:23:04 10° WNW 21:32:51 49° N 21:42:25 10° E visible
10 Dec - 23:28:56 10° WNW 23:39:05 83° NNE 23:48:52 10° ESE visible
11 Dec - 01:34:53 10° WNW 01:43:30 35° SW 01:51:54 10° S night (unlit)
11 Dec - 14:47:58 10° SSE 14:54:39 20° SE 15:01:24 10° E daylight
11 Dec - 16:48:31 10° SW 16:58:30 71° SE 17:08:36 10° ENE daylight
11 Dec - 18:54:10 10° W 19:04:08 57° NNW 19:14:04 10° ENE visible
11 Dec - 21:01:14 10° WNW 21:11:00 48° N 21:20:35 10° E visible
11 Dec - 23:07:08 10° WNW 23:17:19 80° NNE 23:27:07 10° ESE visible
12 Dec - 01:13:00 10° WNW 01:21:49 37° SW 01:30:23 10° SSE night (unlit)
12 Dec - 14:26:40 10° SSE 14:32:58 19° ESE 14:39:19 10° E daylight
12 Dec - 16:26:48 10° SW 16:36:45 68° SE 16:46:49 10° ENE daylight
12 Dec - 18:32:19 10° W 18:42:17 58° NNW 18:52:16 10° ENE visible
12 Dec - 20:39:23 10° WNW 20:49:09 48° N 20:58:44 10° E visible
12 Dec - 22:45:21 10° WNW 22:55:31 78° NNE 23:05:22 10° ESE visible
13 Dec - 00:51:08 10° WNW 01:00:07 40° SW 01:08:51 10° SSE night (unlit)
13 Dec - 14:05:26 10° SSE 14:11:18 17° ESE 14:17:12 10° E daylight
13 Dec - 16:05:08 10° SW 16:15:00 65° SE 16:25:01 10° ENE daylight
13 Dec - 18:10:28 10° W 18:20:28 59° NNW 18:30:29 10° ENE visible
13 Dec - 20:17:32 10° WNW 20:27:17 48° N 20:36:53 10° ENE visible
13 Dec - 22:23:33 10° WNW 22:33:43 75° NNE 22:43:36 10° ESE visible
14 Dec - 00:29:17 10° WNW 00:38:25 42° SW 00:47:18 10° SSE night (unlit)
14 Dec - 13:44:16 10° SSE 13:49:38 16° ESE 13:55:02 10° E daylight
14 Dec - 15:43:28 10° SW 15:53:15 62° SE 16:03:13 10° ENE daylight
14 Dec - 17:48:38 10° W 17:58:38 61° NNW 18:08:41 10° ENE visible
14 Dec - 19:55:41 10° WNW 20:05:26 47° N 20:15:03 10° ENE visible
14 Dec - 22:01:46 10° WNW 22:11:56 73° NNE 22:21:49 10° ESE visible
